Location: Caltech
(34.1382°N, 118.1253°W)
Time: 12:09:42
(UTC-07:00)

Iridium 75 - Visible Passes

Search period start: 03 August 2015 00:00
Search period end: 13 August 2015 00:00
Orbit: 776 x 779 km, 86.4° (Epoch: 03 August)

Date Brightness Start Highest point End Pass type
(mag) Time Alt. Az. Time Alt. Az. Time Alt. Az.
03 Aug 8.0 01:30:41 10° N 01:32:57 25° NNE 01:32:57 25° NNE visible
04 Aug 8.4 00:57:40 10° NNE 00:59:20 18° NE 00:59:20 18° NE visible
04 Aug 8.2 02:38:28 10° NNW 02:39:48 16° NW 02:39:48 16° NW visible
05 Aug 8.7 00:25:28 10° NE 00:25:44 11° NE 00:25:44 11° NE visible
05 Aug 8.1 02:04:20 10° NNW 02:06:12 22° NNW 02:06:12 22° NNW visible
06 Aug 8.1 01:30:41 10° N 01:32:36 23° N 01:32:36 23° N visible
07 Aug 8.3 00:57:24 10° NNE 00:59:01 19° NNE 00:59:01 19° NNE visible
07 Aug 8.6 02:39:17 10° NW 02:39:28 11° NW 02:39:28 11° NW visible
08 Aug 8.6 00:24:38 10° NNE 00:25:26 13° NE 00:25:26 13° NE visible
08 Aug 8.4 02:04:44 10° NNW 02:05:54 16° NNW 02:05:54 16° NNW visible
09 Aug 8.3 01:30:49 10° N 01:32:19 20° NNW 01:32:19 20° NNW visible
10 Aug 8.4 00:57:17 10° N 00:58:45 19° N 00:58:45 19° N visible
11 Aug 8.6 00:24:11 10° NNE 00:25:11 15° NNE 00:25:11 15° NNE visible
11 Aug 8.7 02:05:19 10° NNW 02:05:39 11° NW 02:05:39 11° NW visible
12 Aug 8.6 01:31:05 10° NNW 01:32:06 16° NNW 01:32:06 16° NNW visible
